Simultaneous Nadir Overpasses (SNOs) Predictions

Prediction of SNOs between FY3D and NOAA-19 Satellite Orbit:

Table of predicted SNOs for the next 14.0 days since TLE Epoch: 9/12/2020
Index Date (FY3D) Time (FY3D) Lat,Lon (FY3D) SZA (FY3D ) Date (NOAA-19) Time (NOAA-19) Lat,Lon (NOAA-19) SZA (NOAA-19 ) Distance(km) Time Diff (sec)
1 09/18/2020 08:10:02 79.16, 27.32 78.82 09/18/2020 08:08:47 79.14, 27.25 78.84 2.71 75
2 09/18/2020 09:00:46 -79.16,-165.42 101.16 09/18/2020 08:59:42 -79.15,-165.35 101.16 2.17 64
3 09/18/2020 09:51:31 79.15, 1.96 78.84 09/18/2020 09:50:47 79.15, 1.89 78.86 1.62 44
4 09/18/2020 10:42:14 -79.16, 169.22 101.14 09/18/2020 10:41:41 -79.17, 169.28 101.13 1.50 33
5 09/18/2020 11:32:59 79.15, -23.40 78.87 09/18/2020 11:32:46 79.17, -23.47 78.89 2.37 13
6 09/18/2020 12:23:43 -79.16, 143.86 101.11 09/18/2020 12:23:41 -79.18, 143.92 101.10 2.74 2
7 09/18/2020 13:14:29 79.19, -49.01 78.94 09/18/2020 13:14:46 79.18, -48.84 78.92 3.69 17
8 09/18/2020 14:05:13 -79.19, 118.24 101.03 09/18/2020 14:05:42 -79.17, 118.30 101.07 3.21 29
9 09/18/2020 14:55:58 79.18, -74.37 78.97 09/18/2020 14:56:47 79.17, -74.47 78.94 2.63 49
10 09/18/2020 15:46:42 -79.19, 92.88 101.01 09/18/2020 15:47:42 -79.18, 92.94 101.05 1.52 60
11 09/18/2020 16:37:35 79.45,-101.84 79.42 09/18/2020 16:38:39 79.43, -97.63 79.00 85.96 64
